Pine River, MN

6:52 PM CDT on July 27, 2017 (GMT -0500)
Pine River Regional

Weather History for KPWC - November, 2012

Change the Weather History Date:

Tuesday, November 20, 2012

  Actual Average Record
Temperature  
Mean Temperature 32 °F -  
Max Temperature 44 °F 33 °F 50 °F (2001)
Min Temperature 19 °F 18 °F -5 °F (2014)
Degree Days  
Heating Degree Days 34    
Moisture  
Dew Point 28 °F    
Average Humidity 88    
Maximum Humidity 100    
Minimum Humidity 66    
Precipitation  
Precipitation 0.00 in - - ()
Sea Level Pressure  
Sea Level Pressure 30.11 in    
Wind  
Wind Speed 3 mph (SE)    
Max Wind Speed 8 mph    
Max Gust Speed -    
Visibility 6 miles    
Events Fog    
Averages and records for this station are not official NWS values.
T = Trace of Precipitation, MM = Missing Value Source: NWS Daily Summary

Daily Weather History Graph

Daily Weather History Graph

Search for Another Location

Airport or City:

Trip Planner

Search our weather history database for the weather conditions in past years. The results will help you decide how hot, cold, wet, or windy it might be!

Date:

Astronomy

Nov. 20, 2012 Rise Set
Actual Time 7:27 AM CST 4:38 PM CST
Civil Twilight 6:54 AM CST 5:11 PM CST
Nautical Twilight 6:17 AM CST 5:48 PM CST
Astronomical Twilight 5:41 AM CST 6:24 PM CST
Moon 12:49 PM CST (11/20) No Moon Set
Length of Visible Light 10h 17m
Length of Day
9h 10m
First Quarter, 51% of the Moon is Illuminated
Nov 20
First Quarter
Nov 28
Full
Dec 6
Last Quarter
Dec 13
New
Dec 19
First Quarter

Hourly Weather History & Observations

Time (CST) Temp. Windchill Dew Point Humidity Pressure Visibility Wind Dir Wind Speed Gust Speed Precip Events Conditions
12:13 AM 32.0 °F 25.6 °F 30.2 °F 93% 30.14 in 4.0 mi NW 6.9 mph - N/A   Clear
12:33 AM 30.2 °F 24.3 °F 30.2 °F 100% 30.15 in 4.0 mi NW 5.8 mph - N/A   Clear
12:52 AM 30.2 °F 25.4 °F 30.2 °F 100% 30.14 in 5.0 mi NNW 4.6 mph - N/A   Clear
1:13 AM 30.2 °F 26.7 °F 28.4 °F 93% 30.14 in 4.0 mi NW 3.5 mph - N/A   Clear
1:32 AM 28.4 °F - 26.6 °F 93% 30.14 in 2.5 mi Calm Calm - N/A   Clear
1:52 AM 30.2 °F 26.7 °F 30.2 °F 100% 30.15 in 4.0 mi NNW 3.5 mph - N/A   Clear
2:12 AM 28.4 °F - 28.4 °F 100% 30.15 in 3.0 mi Calm Calm - N/A   Clear
2:33 AM 26.6 °F - 26.6 °F 100% 30.15 in 2.0 mi Calm Calm - N/A   Clear
2:53 AM 24.8 °F - 24.8 °F 100% 30.16 in 3.0 mi Calm Calm - N/A   Clear
3:13 AM 26.6 °F 22.6 °F 24.8 °F 93% 30.16 in 3.0 mi NW 3.5 mph - N/A   Clear
3:32 AM 26.6 °F - 26.6 °F 100% 30.16 in 3.0 mi Calm Calm - N/A   Clear
3:53 AM 23.0 °F - 21.2 °F 93% 30.16 in 4.0 mi Calm Calm - N/A   Clear
4:12 AM 21.2 °F - 19.4 °F 93% 30.16 in 1.5 mi Calm Calm - N/A   Mist
4:33 AM 21.2 °F - 21.2 °F 100% 30.16 in 1.5 mi Calm Calm - N/A   Mist
4:52 AM 19.4 °F - 19.4 °F 100% 30.16 in 1.0 mi Calm Calm - N/A   Mostly Cloudy
5:12 AM 19.4 °F - 19.4 °F 100% 30.16 in 1.2 mi Calm Calm - N/A   Mist
5:32 AM 21.2 °F - 19.4 °F 93% 30.16 in 0.8 mi Calm Calm - N/A   Mostly Cloudy
5:53 AM 19.4 °F - 19.4 °F 100% 30.16 in 3.0 mi Calm Calm - N/A   Overcast
6:12 AM 21.2 °F - 21.2 °F 100% 30.16 in 2.0 mi Calm Calm - N/A   Overcast
6:32 AM 24.8 °F - 23.0 °F 93% 30.16 in 0.2 mi Calm Calm - N/A Fog Light Freezing Fog
6:52 AM 24.8 °F - 24.8 °F 100% 30.15 in 0.2 mi Calm Calm - N/A Fog Light Freezing Fog
7:12 AM 24.8 °F - 24.8 °F 100% 30.16 in 0.2 mi Calm Calm - N/A Fog Light Freezing Fog
7:33 AM 24.8 °F - 24.8 °F 100% 30.17 in 0.2 mi Calm Calm - N/A Fog Light Freezing Fog
7:52 AM 24.8 °F - 23.0 °F 93% 30.17 in 0.2 mi Calm Calm - N/A Fog Light Freezing Fog
8:12 AM 24.8 °F 20.5 °F 23.0 °F 93% 30.18 in 0.2 mi West 3.5 mph - N/A Fog Light Freezing Fog
8:32 AM 24.8 °F - 23.0 °F 93% 30.19 in 0.2 mi Calm Calm - N/A Fog Light Freezing Fog
8:53 AM 24.8 °F - 24.8 °F 100% 30.19 in 0.5 mi Calm Calm - N/A Fog Light Freezing Fog
9:12 AM 24.8 °F - 24.8 °F 100% 30.17 in 0.2 mi Calm Calm - N/A Fog Light Freezing Fog
9:32 AM 24.8 °F - 24.8 °F 100% 30.17 in 0.2 mi Calm Calm - N/A Fog Light Freezing Fog
9:52 AM 26.6 °F - 26.6 °F 100% 30.17 in 0.2 mi Calm Calm - N/A Fog Light Freezing Fog
10:13 AM 26.6 °F - 26.6 °F 100% 30.17 in 0.2 mi Calm Calm - N/A Fog Light Freezing Fog
10:32 AM 28.4 °F - 28.4 °F 100% 30.17 in 0.2 mi Calm Calm - N/A Fog Light Freezing Fog
10:52 AM 28.4 °F - 28.4 °F 100% 30.17 in 0.2 mi Calm Calm - N/A Fog Light Freezing Fog
11:13 AM 30.2 °F - 30.2 °F 100% 30.16 in 0.2 mi Calm Calm - N/A Fog Light Freezing Fog
11:32 AM 30.2 °F - 30.2 °F 100% 30.16 in 0.5 mi Calm Calm - N/A Fog Light Freezing Fog
11:53 AM 33.8 °F 30.8 °F 33.8 °F 100% 30.15 in 3.0 mi SSE 3.5 mph - N/A   Mostly Cloudy
12:11 PM 33.8 °F 30.8 °F 33.8 °F 100% 30.15 in 5.0 mi SE 3.5 mph - N/A   Clear
12:32 PM 37.4 °F - 35.6 °F 93% 30.15 in 10.0 mi Calm Calm - N/A   Clear
12:53 PM 39.2 °F 37.0 °F 33.8 °F 81% 30.13 in 10.0 mi SSE 3.5 mph - N/A   Clear
1:12 PM 42.8 °F - 33.8 °F 70% 30.13 in 10.0 mi Calm Calm - N/A   Clear
1:33 PM 44.6 °F 41.4 °F 35.6 °F 71% 30.11 in 10.0 mi SE 5.8 mph - N/A   Clear
1:52 PM 44.6 °F 42.2 °F 33.8 °F 66% 30.11 in 10.0 mi SSE 4.6 mph - N/A   Clear
2:13 PM 44.6 °F 40.7 °F 33.8 °F 66% 30.10 in 10.0 mi SE 6.9 mph - N/A   Clear
2:33 PM 44.6 °F 41.4 °F 33.8 °F 66% 30.09 in 10.0 mi ESE 5.8 mph - N/A   Clear
2:53 PM 42.8 °F 38.0 °F 32.0 °F 66% 30.08 in 10.0 mi ESE 8.1 mph - N/A   Clear
3:12 PM 41.0 °F 38.0 °F 32.0 °F 70% 30.08 in 10.0 mi SE 4.6 mph - N/A   Clear
3:33 PM 39.2 °F 35.9 °F 32.0 °F 75% 30.08 in 10.0 mi SE 4.6 mph - N/A   Clear
3:53 PM 39.2 °F 37.0 °F 32.0 °F 75% 30.08 in 7.0 mi ESE 3.5 mph - N/A   Clear
4:13 PM 37.4 °F 34.9 °F 30.2 °F 75% 30.09 in 10.0 mi ESE 3.5 mph - N/A   Clear
4:33 PM 33.8 °F 28.6 °F 28.4 °F 81% 30.07 in 10.0 mi ESE 5.8 mph - N/A   Clear
4:53 PM 33.8 °F 28.6 °F 28.4 °F 81% 30.07 in 10.0 mi ESE 5.8 mph - N/A   Clear
5:12 PM 33.8 °F 27.7 °F 28.4 °F 81% 30.06 in 10.0 mi ESE 6.9 mph - N/A   Clear
5:33 PM 35.6 °F 29.9 °F 30.2 °F 81% 30.05 in 10.0 mi SE 6.9 mph - N/A   Clear
5:53 PM 35.6 °F 30.7 °F 30.2 °F 81% 30.04 in 10.0 mi SSE 5.8 mph - N/A   Clear
6:13 PM 35.6 °F 31.7 °F 28.4 °F 75% 30.04 in 10.0 mi SSE 4.6 mph - N/A   Clear
6:32 PM 33.8 °F 27.7 °F 28.4 °F 81% 30.04 in 10.0 mi SE 6.9 mph - N/A   Clear
6:53 PM 35.6 °F 30.7 °F 28.4 °F 75% 30.04 in 10.0 mi SSE 5.8 mph - N/A   Clear
7:12 PM 33.8 °F 29.6 °F 26.6 °F 75% 30.04 in 10.0 mi SSE 4.6 mph - N/A   Clear
7:32 PM 35.6 °F 31.7 °F 26.6 °F 70% 30.03 in 10.0 mi SSE 4.6 mph - N/A   Clear
7:53 PM 35.6 °F 30.7 °F 26.6 °F 70% 30.03 in 10.0 mi SE 5.8 mph - N/A   Clear
8:13 PM 35.6 °F 30.7 °F 28.4 °F 75% 30.02 in 10.0 mi SSE 5.8 mph - N/A   Clear
8:33 PM 35.6 °F 31.7 °F 28.4 °F 75% 30.03 in 10.0 mi SSE 4.6 mph - N/A   Clear
8:53 PM 33.8 °F 28.6 °F 28.4 °F 81% 30.03 in 10.0 mi SSE 5.8 mph - N/A   Clear
9:13 PM 35.6 °F 29.9 °F 30.2 °F 81% 30.02 in 10.0 mi SSE 6.9 mph - N/A   Clear
9:33 PM 35.6 °F 30.7 °F 30.2 °F 81% 30.02 in 10.0 mi SSE 5.8 mph - N/A   Clear
9:53 PM 35.6 °F 32.8 °F 30.2 °F 81% 30.01 in 10.0 mi SSE 3.5 mph - N/A   Clear
10:13 PM 35.6 °F 29.9 °F 30.2 °F 81% 30.00 in 10.0 mi SE 6.9 mph - N/A   Clear
10:33 PM 35.6 °F 32.8 °F 30.2 °F 81% 29.99 in 10.0 mi SSE 3.5 mph - N/A   Clear
10:53 PM 33.8 °F - 30.2 °F 87% 29.99 in 10.0 mi Calm Calm - N/A   Clear
11:12 PM 35.6 °F 30.7 °F 30.2 °F 81% 29.98 in 10.0 mi SSE 5.8 mph - N/A   Clear
11:33 PM 35.6 °F 29.9 °F 30.2 °F 81% 29.97 in 10.0 mi SSE 6.9 mph - N/A   Clear
11:53 PM 37.4 °F 32.8 °F 30.2 °F 75% 29.97 in 10.0 mi South 5.8 mph - N/A   Clear